When you browse on this site, cookies collect data to enhance your experience and personalize the content and advertising you see.
Visit our Privacy Policy to learn more. By continuing to use the site, you agree to this use of cookies and data.

Hourly Weather Sumgayit

Today, 2 July, Thursday

Time Temperature Precipitation Wind Pressure Humidity
00:00 +24°C° 0 mm 3 mps 739 mmHg 56%
01:00 +22°C° 0 mm 3 mps 739 mmHg 59%
02:00 +22°C° 0 mm 3 mps 738 mmHg 61%
03:00 +23°C° 0 mm 2 mps 739 mmHg 64%
04:00 +23°C° 0 mm 2 mps 739 mmHg 61%
05:00 +23°C° 0 mm 2 mps 739 mmHg 59%
06:00 +24°C° 0 mm 1 mps 739 mmHg 57%
07:00 +25°C° 0 mm 2 mps 739 mmHg 50%
08:00 +26°C° 0 mm 3 mps 740 mmHg 42%
09:00 +28°C° 0 mm 3 mps 740 mmHg 35%
10:00 +28°C° 0 mm 3 mps 740 mmHg 34%
11:00 +29°C° 0 mm 3 mps 740 mmHg 34%
12:00 +29°C° 0 mm 4 mps 740 mmHg 33%
13:00 +28°C° 0.1 mm 3 mps 740 mmHg 36%
14:00 +28°C° 0.1 mm 2 mps 739 mmHg 38%
15:00 +27°C° 0 mm 2 mps 739 mmHg 43%
16:00 +27°C° 0.1 mm 2 mps 739 mmHg 41%
17:00 +27°C° 0.1 mm 2 mps 740 mmHg 40%
18:00 +28°C° 0.1 mm 2 mps 740 mmHg 38%
19:00 +27°C° 0 mm 1 mps 740 mmHg 40%
20:00 +26°C° 0 mm 1 mps 740 mmHg 42%
21:00 +26°C° 0 mm 1 mps 740 mmHg 44%
22:00 +25°C° 0 mm 1 mps 740 mmHg 46%
23:00 +25°C° 0 mm 1 mps 740 mmHg 47%

Tomorrow, 3 July, Friday

Time Temperature Precipitation Wind Pressure Humidity
00:00 +25°C° 0 mm 1 mps 739 mmHg 49%
01:00 +24°C° 0 mm 1 mps 739 mmHg 50%
02:00 +24°C° 0 mm 1 mps 739 mmHg 50%
03:00 +24°C° 0 mm 1 mps 739 mmHg 51%
04:00 +24°C° 0 mm 1 mps 739 mmHg 49%
05:00 +25°C° 0 mm 1 mps 739 mmHg 47%
06:00 +26°C° 0 mm 2 mps 739 mmHg 45%
07:00 +27°C° 0 mm 2 mps 740 mmHg 42%
08:00 +29°C° 0 mm 2 mps 740 mmHg 39%
09:00 +30°C° 0 mm 2 mps 740 mmHg 36%
10:00 +31°C° 0 mm 3 mps 740 mmHg 34%
11:00 +33°C° 0 mm 4 mps 740 mmHg 32%
12:00 +34°C° 0 mm 5 mps 740 mmHg 29%
13:00 +34°C° 0 mm 5 mps 739 mmHg 28%
14:00 +34°C° 0 mm 5 mps 739 mmHg 28%
15:00 +34°C° 0 mm 5 mps 738 mmHg 27%
16:00 +33°C° 0 mm 4 mps 738 mmHg 26%
17:00 +33°C° 0 mm 3 mps 738 mmHg 26%
18:00 +31°C° 0 mm 3 mps 738 mmHg 26%
19:00 +31°C° 0 mm 2 mps 739 mmHg 27%
20:00 +30°C° 0 mm 1 mps 739 mmHg 28%
21:00 +27°C° 0 mm 0 mps 739 mmHg 29%
22:00 +26°C° 0 mm 0 mps 739 mmHg 30%
23:00 +26°C° 0 mm 0 mps 739 mmHg 30%

Day after tomorrow, 4 July, Saturday

Time Temperature Precipitation Wind Pressure Humidity
00:00 +25°C° 0 mm 0 mps 739 mmHg 30%
01:00 +26°C° 0 mm 1 mps 739 mmHg 31%
02:00 +26°C° 0 mm 1 mps 738 mmHg 32%
03:00 +25°C° 0 mm 1 mps 738 mmHg 33%
04:00 +26°C° 0 mm 1 mps 738 mmHg 31%
05:00 +27°C° 0 mm 1 mps 739 mmHg 30%
06:00 +28°C° 0 mm 2 mps 739 mmHg 28%
07:00 +29°C° 0 mm 2 mps 739 mmHg 27%
08:00 +30°C° 0 mm 2 mps 739 mmHg 26%
09:00 +31°C° 0 mm 3 mps 739 mmHg 25%
10:00 +33°C° 0 mm 4 mps 739 mmHg 24%
11:00 +34°C° 0 mm 5 mps 739 mmHg 24%
12:00 +35°C° 0 mm 6 mps 738 mmHg 23%
13:00 +35°C° 0 mm 6 mps 738 mmHg 23%
14:00 +34°C° 0 mm 6 mps 738 mmHg 22%
15:00 +34°C° 0 mm 6 mps 737 mmHg 22%
16:00 +34°C° 0 mm 5 mps 737 mmHg 21%
17:00 +33°C° 0 mm 4 mps 737 mmHg 19%
18:00 +31°C° 0 mm 3 mps 737 mmHg 18%
19:00 +30°C° 0 mm 2 mps 737 mmHg 19%
20:00 +30°C° 0 mm 1 mps 737 mmHg 20%
21:00 +27°C° 0 mm 0 mps 737 mmHg 21%
22:00 +28°C° 0 mm 1 mps 737 mmHg 21%
23:00 +27°C° 0 mm 1 mps 737 mmHg 22%

5 July, Sunday

Time Temperature Precipitation Wind Pressure Humidity
00:00 +27°C° 0 mm 1 mps 737 mmHg 22%
01:00 +26°C° 0 mm 1 mps 737 mmHg 23%
02:00 +26°C° 0 mm 1 mps 736 mmHg 23%
03:00 +25°C° 0 mm 1 mps 736 mmHg 23%
04:00 +26°C° 0 mm 1 mps 736 mmHg 21%
05:00 +28°C° 0 mm 1 mps 737 mmHg 20%
06:00 +29°C° 0 mm 2 mps 737 mmHg 18%
07:00 +30°C° 0 mm 2 mps 737 mmHg 18%
08:00 +31°C° 0 mm 2 mps 737 mmHg 17%
09:00 +34°C° 0 mm 2 mps 737 mmHg 17%
10:00 +35°C° 0 mm 4 mps 737 mmHg 16%
11:00 +35°C° 0 mm 5 mps 736 mmHg 16%
12:00 +36°C° 0 mm 6 mps 736 mmHg 16%
13:00 +36°C° 0 mm 6 mps 736 mmHg 16%
14:00 +36°C° 0 mm 6 mps 736 mmHg 16%
15:00 +36°C° 0 mm 5 mps 735 mmHg 16%
16:00 +35°C° 0 mm 4 mps 735 mmHg 16%
17:00 +35°C° 0 mm 3 mps 735 mmHg 16%
18:00 +35°C° 0 mm 2 mps 735 mmHg 16%
19:00 +34°C° 0 mm 2 mps 735 mmHg 18%
20:00 +31°C° 0 mm 2 mps 735 mmHg 19%
21:00 +30°C° 0 mm 2 mps 735 mmHg 21%
22:00 +30°C° 0 mm 1 mps 735 mmHg 23%
23:00 +29°C° 0 mm 1 mps 735 mmHg 26%

6 July, Monday

Time Temperature Precipitation Wind Pressure Humidity
00:00 +28°C° 0 mm 1 mps 735 mmHg 28%
01:00 +28°C° 0 mm 1 mps 735 mmHg 28%
02:00 +28°C° 0 mm 2 mps 735 mmHg 27%
03:00 +28°C° 0 mm 2 mps 735 mmHg 27%
04:00 +28°C° 0 mm 2 mps 735 mmHg 26%
05:00 +29°C° 0 mm 3 mps 735 mmHg 25%
06:00 +30°C° 0 mm 3 mps 735 mmHg 25%
07:00 +31°C° 0 mm 3 mps 735 mmHg 24%
08:00 +34°C° 0 mm 4 mps 735 mmHg 22%
09:00 +35°C° 0 mm 4 mps 735 mmHg 21%
10:00 +36°C° 0 mm 4 mps 735 mmHg 20%
11:00 +37°C° 0 mm 4 mps 735 mmHg 20%
12:00 +38°C° 0 mm 4 mps 735 mmHg 19%
13:00 +39°C° 0 mm 5 mps 735 mmHg 18%
14:00 +39°C° 0 mm 5 mps 734 mmHg 17%
15:00 +40°C° 0 mm 5 mps 734 mmHg 17%
16:00 +38°C° 0 mm 4 mps 734 mmHg 18%
17:00 +37°C° 0 mm 4 mps 734 mmHg 18%
18:00 +37°C° 0 mm 3 mps 734 mmHg 19%
19:00 +35°C° 0 mm 2 mps 734 mmHg 22%
20:00 +33°C° 0 mm 1 mps 734 mmHg 25%
21:00 +31°C° 0 mm 1 mps 735 mmHg 28%
22:00 +29°C° 0 mm 0 mps 734 mmHg 29%
23:00 +28°C° 0 mm 0 mps 734 mmHg 31%

7 July, Tuesday

Time Temperature Precipitation Wind Pressure Humidity
00:00 +27°C° 0 mm 0 mps 734 mmHg 32%
01:00 +29°C° 0 mm 1 mps 734 mmHg 32%
02:00 +29°C° 0 mm 1 mps 734 mmHg 33%
03:00 +28°C° 0 mm 1 mps 734 mmHg 33%
04:00 +29°C° 0 mm 1 mps 734 mmHg 31%
05:00 +30°C° 0 mm 1 mps 734 mmHg 30%
06:00 +31°C° 0 mm 1 mps 734 mmHg 28%
07:00 +32°C° 0 mm 2 mps 734 mmHg 26%
08:00 +34°C° 0 mm 2 mps 734 mmHg 24%
09:00 +35°C° 0 mm 3 mps 735 mmHg 22%
10:00 +37°C° 0 mm 4 mps 734 mmHg 20%
11:00 +38°C° 0 mm 4 mps 734 mmHg 18%
12:00 +40°C° 0 mm 5 mps 734 mmHg 15%
13:00 +40°C° 0 mm 5 mps 734 mmHg 16%
14:00 +40°C° 0 mm 5 mps 734 mmHg 16%
15:00 +39°C° 0 mm 5 mps 733 mmHg 17%
16:00 +37°C° 0 mm 5 mps 733 mmHg 18%
17:00 +36°C° 0 mm 4 mps 733 mmHg 20%
18:00 +35°C° 0 mm 3 mps 733 mmHg 21%
19:00 +34°C° 0 mm 3 mps 733 mmHg 25%
20:00 +32°C° 0 mm 2 mps 733 mmHg 28%
21:00 +30°C° 0 mm 1 mps 733 mmHg 31%
22:00 +30°C° 0 mm 1 mps 733 mmHg 33%
23:00 +29°C° 0 mm 1 mps 733 mmHg 34%
Show more